[[{"header":{"parameterUnit":"m.s-1","parameterCategory":1,"la1":30.2991,"la2":30.254,"lo1":-89.0895,"lo2":-89.0444,"dy":0.0017,"dx":0.0017,"nx":28,"ny":28,"refTime":"2025-07-27T21:00:00:Z","depth":0,"parameterNumber":2,"parameterNumberName":"U-component_of_WINDS"},"data":[0,0,0,0,0,0,0,0,0,0,0,0,0,0,0,0,0,0,0,0,0,0,0,0,0,0,0,0,0,0,0,0,0,0,0,0,0,0,0,0,0,0,0,0,0,0,0,0,0,0,0,0,0,0,0,0,0,0,-0.6604,-0.6603,0,-0.6578,-0.6578,-0.6577,-0.6545,-0.6544,-0.6544,-0.6543,-0.6517,-0.6517,-0.6517,0,0,0,0,0,0,0,0,0,0,0,0,0,-0.6624,-0.6624,-0.6604,-0.6603,-0.6603,-0.6578,-0.6578,-0.6577,-0.6545,-0.6544,-0.6544,-0.6543,-0.6517,-0.6517,-0.6517,0,0,0,0,0,0,0,0,0,0,0,0,0,-0.6609,-0.6624,-0.6604,-0.6584,-0.6582,-0.6578,-0.6578,-0.6577,-0.6545,-0.6544,-0.6544,-0.6543,-0.6517,-0.6517,-0.6517,-0.653,0,0,-0.6516,-0.6516,0,0,0,0,0,0,0,0,-0.661,-0.6608,-0.6587,-0.6585,-0.6583,-0.6564,-0.6575,-0.6562,-0.6545,-0.6559,-0.6543,-0.6542,-0.6533,-0.6532,-0.6529,-0.6529,-0.6528,-0.6516,-0.6515,-0.6515,-0.6515,0,0,0,0,0,0,0,-0.6611,-0.6609,-0.6594,-0.6587,-0.6584,-0.6576,-0.6573,-0.6573,-0.6551,-0.6558,-0.6555,-0.6553,-0.6532,-0.6529,-0.6528,-0.6528,-0.6516,-0.6515,-0.6515,-0.6515,-0.6537,-0.6538,0,0,0,0,0,0,-0.6615,-0.661,-0.6594,-0.6593,-0.6595,-0.6576,-0.6573,-0.6571,-0.6551,-0.6547,-0.6554,-0.6551,-0.653,-0.6528,-0.6527,-0.654,-0.6515,-0.6515,-0.6515,-0.6537,-0.6538,-0.6538,0,0,0,0,0,0,-0.6616,-0.6614,-0.6595,-0.6601,-0.6598,-0.6577,-0.6575,-0.6571,-0.6567,-0.6548,-0.6544,-0.6554,-0.6529,-0.6527,-0.6529,-0.6539,-0.6515,-0.6515,-0.6536,-0.6537,-0.6538,-0.6569,0,0,0,0,0,0,-0.6616,-0.6614,-0.6619,-0.6601,-0.6598,-0.6599,-0.6575,-0.6571,-0.6567,-0.6564,-0.6547,-0.6544,-0.6528,-0.653,-0.6529,-0.6538,-0.6514,-0.6535,-0.6536,-0.6538,-0.6567,-0.6571,-0.6574,0,0,0,0,0,-0.6617,-0.6629,-0.662,-0.6618,-0.6603,-0.6599,-0.6597,-0.6579,-0.6568,-0.6573,-0.656,-0.6544,-0.6539,-0.6531,-0.6529,-0.6538,-0.6534,-0.6536,-0.6537,-0.6565,-0.657,-0.6574,0,0,0,0,0,0,-0.6649,-0.6626,-0.6616,-0.6622,-0.6613,-0.6594,-0.6599,-0.6586,-0.6579,-0.6577,-0.6555,-0.6551,-0.6556,-0.6548,-0.6539,-0.655,-0.6534,-0.6536,-0.6555,-0.656,-0.6564,-0.6565,-0.6514,0,0,0,0,0,-0.6657,-0.6655,-0.6636,-0.6643,-0.6639,-0.662,-0.6618,-0.6605,-0.6594,-0.659,-0.6578,-0.6568,-0.6564,-0.6562,-0.6557,-0.6566,-0.6561,-0.6572,-0.6575,-0.6579,-0.658,-0.6583,-0.6587,-0.6544,-0.6544,-0.6544,0,0,-0.6673,-0.666,-0.6661,-0.6649,-0.6641,-0.664,-0.6617,-0.6617,-0.6616,-0.659,-0.6591,-0.6582,-0.657,-0.6575,-0.6577,-0.6568,-0.6591,-0.6581,-0.6584,-0.6583,-0.6585,-0.6589,-0.6593,-0.6545,-0.6545,-0.6545,0,0,-0.6701,-0.6692,-0.6697,-0.6688,-0.6676,-0.6663,-0.6664,-0.6647,-0.664,-0.6641,-0.6621,-0.662,-0.6614,-0.6605,-0.6601,-0.6626,-0.6611,-0.6625,-0.6644,-0.6648,-0.6651,-0.6654,-0.6662,-0.6665,-0.6627,-0.6627,-0.6627,0,-0.6722,-0.6719,-0.6701,-0.6702,-0.6697,-0.6674,-0.6679,-0.6672,-0.6658,-0.6656,-0.6646,-0.6637,-0.6628,-0.663,-0.6637,-0.6634,-0.6634,-0.6626,-0.6652,-0.6655,-0.6657,-0.6665,-0.6668,-0.6629,-0.6628,-0.6628,-0.6628,0,-0.6746,-0.6744,-0.675,-0.6737,-0.6733,-0.6736,-0.6718,-0.6716,-0.6704,-0.6692,-0.6693,-0.6681,-0.6673,-0.6673,-0.6661,-0.6674,-0.6669,-0.6656,-0.6639,-0.6663,-0.667,-0.6673,-0.6631,-0.663,-0.663,-0.6629,0,0,-0.6792,-0.6769,-0.6772,-0.6765,-0.675,-0.6748,-0.675,-0.6742,-0.6741,-0.6732,-0.6733,-0.6728,-0.6716,-0.6711,-0.6698,-0.6701,-0.6721,-0.6688,-0.6687,-0.6693,-0.6733,-0.6742,-0.6745,-0.6711,-0.6712,-0.6712,-0.6734,0,-0.6816,-0.6818,-0.6801,-0.6807,-0.6805,-0.6784,-0.6785,-0.6776,-0.6765,-0.6762,-0.675,-0.6747,-0.6732,-0.6728,-0.6731,-0.6718,-0.6728,-0.6716,-0.6711,-0.6711,-0.6713,-0.6749,-0.6758,-0.6779,-0.6736,-0.6737,-0.6737,0,-0.6845,-0.6837,-0.6843,-0.6827,-0.6825,-0.6827,-0.6818,-0.6816,-0.6805,-0.6796,-0.6791,-0.6776,-0.6776,-0.6761,-0.6761,-0.6753,-0.675,-0.6743,-0.6744,-0.6741,-0.6724,-0.6746,-0.6785,-0.6788,-0.6741,-0.6741,-0.674,0,-0.6876,-0.6868,-0.687,-0.6866,-0.6847,-0.6849,-0.6841,-0.6829,-0.6826,-0.6818,-0.6815,-0.6808,-0.6804,-0.6799,-0.6782,-0.6773,-0.6784,-0.6767,-0.6776,-0.6777,-0.6778,-0.6778,-0.6816,-0.6779,-0.6779,-0.6779,-0.6779,0,-0.6904,-0.6908,-0.6884,-0.6886,-0.6889,-0.6871,-0.6875,-0.6865,-0.6855,-0.6853,-0.6835,-0.6834,-0.6813,-0.681,-0.6797,-0.6798,-0.6797,-0.679,-0.6786,-0.6791,-0.6792,-0.6788,-0.6785,-0.678,-0.6779,-0.6779,-0.6779,0,-0.694,-0.6924,-0.6925,-0.6907,-0.6903,-0.6906,-0.6891,-0.6892,-0.688,-0.6879,-0.6877,-0.6859,-0.6854,-0.6838,-0.6829,-0.682,-0.6825,-0.6819,-0.6829,-0.6826,-0.6836,-0.6834,-0.6871,-0.6874,-0.6836,-0.6837,-0.6837,0,-0.6958,-0.696,-0.6943,-0.6941,-0.6934,-0.6931,-0.6927,-0.6909,-0.6906,-0.6893,-0.6895,-0.6889,-0.6882,-0.6876,-0.6861,-0.6855,-0.6847,-0.6861,-0.6846,-0.685,-0.6846,-0.6846,-0.6845,-0.6863,-0.6864,-0.6864,-0.6865,0,-0.6991,-0.6983,-0.6978,-0.6971,-0.6967,-0.696,-0.6952,-0.6951,-0.6931,-0.6928,-0.6923,-0.6918,-0.6909,-0.6903,-0.6894,-0.6886,-0.6872,-0.687,-0.6871,-0.6875,-0.688,-0.6876,-0.6836,-0.6869,-0.6868,-0.6868,-0.6868,-0.6867,-0.7018,-0.7019,-0.7007,-0.7002,-0.6994,-0.6987,-0.6986,-0.6974,-0.697,-0.6961,-0.6951,-0.6947,-0.6935,-0.6922,-0.6915,-0.6911,-0.6903,-0.6906,-0.6906,-0.6907,-0.6908,-0.6882,-0.6909,-0.6909,-0.6909,-0.6909,-0.6909,0,-0.7049,-0.704,-0.7036,-0.7025,-0.7022,-0.7009,-0.7,-0.6997,-0.6994,-0.6985,-0.6979,-0.6973,-0.6967,-0.6953,-0.6945,-0.6945,-0.6938,-0.6943,-0.6943,-0.6941,-0.6916,-0.6915,-0.6949,-0.6949,-0.6949,-0.6949,-0.6949,-0.6949,-0.7065,-0.7065,-0.7056,-0.7053,-0.7044,-0.704,-0.7036,-0.7029,-0.7021,-0.7016,-0.701,-0.7001,-0.699,-0.6981,-0.6975,-0.6971,-0.6968,-0.6976,-0.6969,-0.6946,-0.6943,-0.6939,-0.6938,-0.6976,-0.6976,-0.6994,-0.6994,-0.6994]},{"header":{"parameterUnit":"m.s-1","parameterCategory":1,"la1":30.2991,"la2":30.254,"lo1":-89.0895,"lo2":-89.0444,"dy":0.0017,"dx":0.0017,"nx":28,"ny":28,"refTime":"2025-07-27T21:00:00:Z","depth":0,"parameterNumber":3,"parameterNumberName":"V-component_of_WINDS"},"data":[0,0,0,0,0,0,0,0,0,0,0,0,0,0,0,0,0,0,0,0,0,0,0,0,0,0,0,0,0,0,0,0,0,0,0,0,0,0,0,0,0,0,0,0,0,0,0,0,0,0,0,0,0,0,0,0,0,0,0.1574,0.1574,0,0.153,0.153,0.1529,0.1514,0.1515,0.1515,0.1515,0.1466,0.1465,0.1464,0,0,0,0,0,0,0,0,0,0,0,0,0,0.1643,0.1642,0.1574,0.1574,0.1573,0.153,0.153,0.1529,0.1514,0.1515,0.1515,0.1515,0.1467,0.1465,0.1463,0,0,0,0,0,0,0,0,0,0,0,0,0,0.1607,0.1641,0.1574,0.1561,0.1559,0.153,0.153,0.1529,0.1514,0.1515,0.1515,0.1515,0.1468,0.1465,0.1463,0.1444,0,0,0.1456,0.1455,0,0,0,0,0,0,0,0,0.1609,0.1605,0.1563,0.1562,0.156,0.1528,0.1536,0.15,0.1514,0.1531,0.1515,0.1515,0.1487,0.1483,0.1474,0.1441,0.1439,0.1456,0.1455,0.1454,0.1453,0,0,0,0,0,0,0,0.1612,0.1607,0.1557,0.1563,0.1561,0.1556,0.1551,0.1529,0.1508,0.153,0.1529,0.1524,0.1486,0.1476,0.1472,0.1439,0.1456,0.1454,0.1453,0.1452,0.1387,0.1387,0,0,0,0,0,0,0.1617,0.1609,0.1558,0.1555,0.1586,0.1554,0.1549,0.1538,0.1508,0.1504,0.1524,0.1523,0.148,0.1475,0.1471,0.1445,0.1454,0.1452,0.1451,0.1388,0.1387,0.1387,0,0,0,0,0,0,0.1619,0.1613,0.156,0.1582,0.1575,0.1553,0.1541,0.1537,0.1527,0.1503,0.1499,0.1518,0.148,0.1474,0.1451,0.1444,0.1451,0.1449,0.1388,0.1387,0.1387,0.1395,0,0,0,0,0,0,0.1621,0.1613,0.1606,0.1582,0.1574,0.1542,0.154,0.1536,0.1524,0.1523,0.1497,0.1493,0.1479,0.1454,0.1448,0.1441,0.1447,0.1389,0.1388,0.1387,0.1395,0.1395,0.1395,0,0,0,0,0,0.1623,0.161,0.1606,0.16,0.1565,0.1541,0.1536,0.1522,0.1523,0.1516,0.15,0.1493,0.1445,0.1452,0.1445,0.1437,0.1389,0.1388,0.1387,0.1396,0.1395,0.1395,0,0,0,0,0,0,0.1633,0.1606,0.1602,0.1581,0.1564,0.1539,0.1529,0.1522,0.1504,0.1504,0.1486,0.148,0.1458,0.1445,0.1453,0.1416,0.1417,0.1414,0.1425,0.1425,0.1424,0.1428,0.1445,0,0,0,0,0,0.1633,0.1618,0.1594,0.1578,0.157,0.1551,0.154,0.1531,0.1512,0.1504,0.1487,0.1468,0.1448,0.1436,0.1416,0.1394,0.1387,0.1384,0.1384,0.1384,0.1382,0.1368,0.1367,0.1384,0.1384,0.1384,0,0,0.1633,0.1616,0.1607,0.158,0.1565,0.1548,0.1545,0.1527,0.1514,0.1501,0.1478,0.1465,0.1442,0.1419,0.1408,0.1408,0.1376,0.1383,0.1383,0.1381,0.1367,0.1366,0.1364,0.1383,0.1383,0.1383,0,0,0.1623,0.1609,0.1594,0.158,0.1558,0.1546,0.1542,0.1518,0.1509,0.1486,0.1476,0.146,0.1427,0.1411,0.1399,0.1383,0.1376,0.1377,0.1375,0.1362,0.136,0.1359,0.1353,0.1351,0.1375,0.1375,0.1375,0,0.1625,0.16,0.1586,0.1569,0.1557,0.1546,0.1529,0.1516,0.1489,0.148,0.148,0.1439,0.1422,0.1395,0.1391,0.1382,0.1376,0.138,0.1362,0.136,0.1359,0.1353,0.1351,0.1376,0.1376,0.1376,0.1375,0,0.1603,0.1585,0.1575,0.1551,0.1537,0.1521,0.1504,0.1491,0.1483,0.1471,0.1447,0.1427,0.1404,0.1397,0.1388,0.1368,0.1368,0.1365,0.1366,0.1358,0.1352,0.1349,0.1376,0.1376,0.1376,0.1376,0,0,0.1598,0.1567,0.1563,0.1552,0.1527,0.1513,0.1495,0.1473,0.1463,0.1444,0.1429,0.1401,0.1398,0.1384,0.1373,0.1362,0.135,0.136,0.1359,0.1359,0.1326,0.1328,0.1326,0.1345,0.1345,0.1344,0.1328,0,0.1585,0.1554,0.1542,0.1516,0.15,0.1489,0.1473,0.1456,0.1443,0.1426,0.1412,0.1393,0.1391,0.1382,0.137,0.1354,0.1343,0.1355,0.1329,0.1329,0.1335,0.1323,0.1325,0.1311,0.1326,0.1325,0.1325,0,0.1566,0.1548,0.1522,0.1499,0.1492,0.1478,0.1457,0.1441,0.1421,0.1413,0.1397,0.1387,0.1367,0.1369,0.134,0.1349,0.1337,0.1328,0.1327,0.1324,0.1326,0.1319,0.1306,0.1304,0.1321,0.1321,0.1322,0,0.1565,0.1535,0.1515,0.1505,0.1478,0.1469,0.1457,0.1437,0.1425,0.1406,0.1397,0.1376,0.1364,0.1347,0.1331,0.1334,0.1304,0.1304,0.1295,0.1296,0.1289,0.129,0.1274,0.1282,0.1282,0.1282,0.1282,0,0.1552,0.1536,0.1514,0.1502,0.1483,0.1468,0.145,0.1437,0.1419,0.1404,0.1392,0.1377,0.1357,0.134,0.1327,0.1305,0.13,0.1292,0.1288,0.1293,0.1294,0.1285,0.1285,0.1282,0.1282,0.1282,0.1282,0,0.1547,0.1532,0.151,0.1487,0.148,0.1468,0.1447,0.1434,0.1421,0.1401,0.1395,0.1375,0.1353,0.1336,0.1307,0.1299,0.1276,0.1272,0.1283,0.1281,0.1273,0.1274,0.1251,0.1246,0.1258,0.1258,0.1258,0,0.154,0.1528,0.1503,0.1492,0.1481,0.1463,0.1451,0.1435,0.1422,0.1398,0.1388,0.1366,0.1347,0.1313,0.1295,0.1273,0.1269,0.1262,0.1265,0.127,0.1268,0.1269,0.1267,0.1261,0.1261,0.1261,0.1261,0,0.1528,0.1521,0.1504,0.1484,0.147,0.1453,0.1436,0.1428,0.1409,0.1395,0.1373,0.1359,0.133,0.1308,0.1285,0.1271,0.1263,0.126,0.1257,0.1261,0.1268,0.1264,0.1282,0.1261,0.1261,0.1261,0.1261,0.1261,0.1522,0.151,0.1491,0.1472,0.1458,0.1442,0.1429,0.1415,0.1397,0.1373,0.1365,0.1342,0.1322,0.1289,0.1275,0.1257,0.1256,0.1251,0.125,0.1249,0.1249,0.1271,0.1252,0.1252,0.1252,0.1252,0.1252,0,0.1509,0.1496,0.1479,0.1456,0.1441,0.1436,0.1417,0.1404,0.1385,0.1367,0.1349,0.1324,0.1303,0.1283,0.126,0.1249,0.1245,0.1244,0.1244,0.1241,0.1252,0.1257,0.1248,0.1248,0.1248,0.1248,0.1248,0.1248,0.1501,0.1481,0.1472,0.1444,0.1431,0.141,0.14,0.1385,0.137,0.1343,0.1326,0.1313,0.1294,0.127,0.1249,0.1244,0.1236,0.1236,0.1229,0.124,0.124,0.1241,0.1246,0.1234,0.1234,0.122,0.122,0.122]}]]